カタログに戻る

COSMOS 367

運用中軍事LEO
NORAD 4564·PAYLOAD·🇷🇺 Russia

打ち上げ Oct 3, 1970 から Baikonur Cosmodrome

Loading…

次のパス (今後24時間)

TLE

最新Source: Space-Track

元期: Sep 14, 2026, 04:39 UTC

1 04564U 70079A   26257.19377189 -.00000063  00000-0  21433-4 0  9996
2 04564  65.2778 193.0861 0054565  26.2717 334.1092 13.78569553815383

AllMySatでCOSMOS 367をリアルタイム追跡

Download on the App Store